This demonstration page uses our WeatherBlox Daily Observations layout. Learn more.

Left ArrowRight Arrow

Hourly Observations for July 21, 2015

Temp ( °F °C ) Dew Point ( °F °C ) Humidity (%) Winds ( mph kmh ) Pressure ( in mb ) Visibility ( mi km ) Precip ( " mm )
12:53 am 00:53 Clear 88 31.1 63 17.2 43 43 SSW 7 11 29.82 1010 10 16 0.00 0.00
1:53 am 01:53 Clear 86 30 62 16.7 45 45 SW 7 11 29.82 1010 10 16 0.00 0.00
2:53 am 02:53 Clear 82 27.8 61 16.1 49 49 Calm 29.83 1010 10 16 0.00 0.00
3:53 am 03:53 Clear 79 26.1 61 16.1 54 54 WNW 3 6 29.83 1010 10 16 0.00 0.00
4:53 am 04:53 Clear 79 26.1 61 16.1 54 54 NE 3 6 29.84 1011 10 16 0.00 0.00
5:53 am 05:53 Clear 77 25 61 16.1 58 58 Calm 29.85 1011 10 16 0.00 0.00
6:53 am 06:53 Sunny 79 26.1 61 16.1 54 54 Calm 29.85 1011 10 16 0.00 0.00
7:53 am 07:53 Sunny 82 27.8 60 15.6 47 47 Calm 29.85 1011 10 16 0.00 0.00
8:53 am 08:53 Sunny 84 28.9 60 15.6 44 44 Calm 29.84 1011 10 16 0.00 0.00
9:53 am 09:53 Sunny 88 31.1 59 15 38 38 VRB 3 6 29.83 1010 10 16 0.00 0.00
10:53 am 10:53 Sunny 91 32.8 59 15 34 34 VRB 3 6 29.81 1010 10 16 0.00 0.00
11:53 am 11:53 Sunny 94 34.4 59 15 31 31 undefined N/A 29.79 1009 10 16 0.00 0.00
12:53 pm 12:53 Sunny 96 35.6 58 14.4 28 28 SSE 7 11 29.76 1008 10 16 0.00 0.00
1:53 pm 13:53 Sunny 98 36.7 58 14.4 26 26 S 10 17 29.72 1007 10 16 0.00 0.00
2:53 pm 14:53 Sunny 99 37.2 58 14.4 26 26 S 8 13 29.69 1006 10 16 0.00 0.00
3:53 pm 15:53 Sunny 101 38.3 58 14.4 24 24 SSE 15 24 29.66 1004 10 16 0.00 0.00
4:53 pm 16:53 Sunny 101 38.3 57 13.9 23 23 SSE 14 22 29.64 1004 10 16 0.00 0.00
5:53 pm 17:53 Sunny 100 37.8 59 15 26 26 S 20 31 29.61 1003 10 16 0.00 0.00
6:53 pm 18:53 Sunny 96 35.6 60 15.6 30 30 S 18 30 29.62 1003 10 16 0.00 0.00
7:53 pm 19:53 Sunny 95 35 61 16.1 32 32 S 17 28 29.63 1003 10 16 0.00 0.00
8:53 pm 20:53 Clear 92 33.3 63 17.2 38 38 S 12 19 29.64 1004 10 16 0.00 0.00
9:53 pm 21:53 Clear 90 32.2 64 17.8 42 42 S 10 17 29.66 1004 10 16 0.00 0.00
10:53 pm 22:53 Clear 90 32.2 62 16.7 39 39 S 13 20 29.67 1005 10 16 0.00 0.00
11:53 pm 23:53 Clear 88 31.1 59 15 38 38 SSW 9 15 29.67 1005 10 16 0.00 0.00

Powered by AerisWeather